NIMIQ 2

导读

NIMIQ 2卫星是加拿大(CA)于2002年12月29日08:00发射的通信卫星,作为NIMIQ系列卫星的一员,它主要服务于北美地区的通信需求,提供广播电视、数据传输等业务。该卫星进入预定地球静止轨道后,增强了区域通信覆盖能力,满足了当时不断增长的卫星通信带宽需求,支撑了北美媒体和民用通信网络的稳定运行,在商业卫星通信领域发挥了重要作用。

基本信息
目录编号:
27632
目录名称:
NIMIQ 2
国际标识:
2002-062A
轨道中心:
EARTH
卫星名称:
NIMIQ 2
卫星全名:
--
卫星状态:
在轨 (已飞行8598 天)
发射日期:
2002-12-29 UTC
国别 :
加拿大 (CA)
星等 :
--
轨道信息
数据来源 国际轨道数据 AOE轨道数据
星历时间 2026-07-13T22:39:26+0800
14小时前
查看轨道信息
2026-07-13T11:00:00+0800
1天前
查看轨道信息
半长轴 42165.177km 42165.205km
偏心率 0.0005242 0.0005277
轨道倾角 9.505° 9.504°
近地点辐角 54.196° 52.257°
升交点赤经 56.615° 56.621°
平近点角 291.323° 117.922°
近地点 35764.937km 35764.817km
远地点 35809.143km 35809.319km
周期 1436.120分钟 1436.121分钟
每日圈数 1.002702 1.002701
详细信息
使用方式:
暂无
2D轨道图
3D轨道图
轨道高度分析图
轨道倾角分析图
轨道综合分析图
查看轨道综合分析图